Hutchinson, KS

1:15 AM CDT on September 18, 2019 (GMT -0500)
Hutchinson Municipal

Weather History for KHUT - July, 2019

Change the Weather History Date:

Wednesday, July 31, 2019

  Actual Average Record
Temperature  
Mean Temperature 86 °F -  
Max Temperature 100 °F 89 °F 105 °F (2011)
Min Temperature 72 °F 65 °F 54 °F (2014)
Cooling Degree Days 21    
Growing Degree Days 36 (Base 50)    
Moisture  
Dew Point 65 °F    
Average Humidity 52    
Maximum Humidity 76    
Minimum Humidity 30    
Precipitation  
Precipitation 0.00 in - - ()
Sea Level Pressure  
Sea Level Pressure 29.91 in    
Wind  
Wind Speed 14 mph (SSE)    
Max Wind Speed 25 mph    
Max Gust Speed 36 mph    
Visibility 10 miles    
Events      
Averages and records for this station are not official NWS values.
T = Trace of Precipitation, MM = Missing Value Source: NWS Daily Summary

Daily Weather History Graph

Daily Weather History Graph

Search for Another Location

Airport or City:

Astronomy

Jul. 31, 2019 Rise Set
Actual Time 6:33 AM CDT 8:41 PM CDT
Civil Twilight 6:03 AM CDT 9:11 PM CDT
Nautical Twilight 5:27 AM CDT 9:46 PM CDT
Astronomical Twilight 4:48 AM CDT 10:25 PM CDT
Moon 5:49 AM CDT (7/31) 8:42 PM CDT (7/31)
Length of Visible Light 15h 07m
Length of Day
14h 08m
Waning Crescent, 0% of the Moon is Illuminated
Jul 31
Waning Crescent
Jul 31
New
Aug 7
First Quarter
Aug 15
Full
Aug 23
Last Quarter

Hourly Weather History & Observations

Time (CDT) Temp. Heat Index Dew Point Humidity Pressure Visibility Wind Dir Wind Speed Gust Speed Precip Events Conditions
12:52 AM 77.0 °F - 64.0 °F 64% 29.96 in 10.0 mi SSE 12.7 mph - N/A   Clear
1:52 AM 75.9 °F - 63.0 °F 64% 29.95 in 10.0 mi SSE 13.8 mph - N/A   Clear
2:52 AM 75.0 °F - 63.0 °F 66% 29.93 in 10.0 mi SE 11.5 mph - N/A   Clear
3:52 AM 75.0 °F - 63.0 °F 66% 29.94 in 10.0 mi SE 10.4 mph - N/A   Clear
4:52 AM 73.0 °F - 64.0 °F 73% 29.94 in 10.0 mi ESE 6.9 mph - N/A   Clear
5:52 AM 73.0 °F - 63.0 °F 71% 29.95 in 10.0 mi SE 11.5 mph - N/A   Clear
6:52 AM 72.0 °F - 64.0 °F 76% 29.97 in 10.0 mi SE 9.2 mph - N/A   Clear
7:52 AM 73.9 °F - 64.9 °F 73% 29.98 in 10.0 mi SE 10.4 mph - N/A   Clear
8:52 AM 78.1 °F - 64.9 °F 64% 29.98 in 10.0 mi SE 15.0 mph - N/A   Clear
9:52 AM 79.0 °F - 66.0 °F 64% 29.98 in 10.0 mi SE 13.8 mph - N/A   Clear
10:52 AM 84.0 °F 86.5 °F 66.9 °F 56% 29.96 in 10.0 mi SE 21.9 mph 27.6 mph N/A   Clear
11:52 AM 91.0 °F 95.2 °F 68.0 °F 47% 29.94 in 10.0 mi SSE 19.6 mph 27.6 mph N/A   Clear
12:52 PM 93.9 °F 97.0 °F 66.0 °F 40% 29.92 in 10.0 mi SSE 23.0 mph - N/A   Clear
1:52 PM 97.0 °F 101.0 °F 66.9 °F 37% 29.90 in 10.0 mi South 24.2 mph 32.2 mph N/A   Clear
2:52 PM 99.0 °F 103.5 °F 66.9 °F 35% 29.88 in 10.0 mi SSE 25.3 mph - N/A   Clear
3:52 PM 100.0 °F 104.2 °F 66.0 °F 33% 29.86 in 10.0 mi SSE 23.0 mph 35.7 mph N/A   Clear
4:52 PM 100.9 °F 105.3 °F 66.0 °F 32% 29.85 in 10.0 mi South 18.4 mph 33.4 mph N/A   Clear
5:52 PM 100.9 °F 104.0 °F 64.0 °F 30% 29.84 in 10.0 mi South 17.3 mph - N/A   Clear
6:52 PM 97.0 °F 97.8 °F 62.1 °F 31% 29.82 in 10.0 mi South 15.0 mph - N/A   Clear
7:52 PM 93.0 °F 94.6 °F 64.0 °F 38% 29.83 in 10.0 mi SSE 12.7 mph - N/A   Clear
8:52 PM 91.0 °F 92.6 °F 64.0 °F 41% 29.83 in 10.0 mi SSE 13.8 mph 21.9 mph N/A   Clear
9:52 PM 89.1 °F 91.0 °F 64.9 °F 45% 29.86 in 10.0 mi SSE 10.4 mph - N/A   Clear
10:52 PM 88.0 °F 89.6 °F 64.9 °F 46% 29.90 in 10.0 mi SW 3.5 mph - N/A   Clear
11:52 PM 82.9 °F 85.4 °F 66.9 °F 58% 29.90 in 10.0 mi Calm Calm - N/A   Clear